[[{"header":{"parameterUnit":"m.s-1","parameterCategory":2,"la1":30.2991,"la2":30.254,"lo1":-89.0895,"lo2":-89.0444,"dy":0.0017,"dx":0.0017,"nx":28,"ny":28,"refTime":"2024-04-30T03:00:00:Z","depth":"0","parameterNumber":2,"parameterNumberName":"U-component_of_CURRENTS"},"data":[0,0,0,0,0,0,0,0,0,0,0,0,0,0,0,0,0,0,0,0,0,0,0,0,0,0,0,0,0,0,0,0,0,0,0,0,0,0,0,0,0,0,0,0,0,0,0,0,0,0,0,0,0,0,0,0,0,0,0.2381,0.238,0,0.2299,0.2298,0.2297,0.2298,0.2299,0.23,0.2302,0.2296,0.2295,0.2294,0,0,0,0,0,0,0,0,0,0,0,0,0,0.2417,0.2417,0.2381,0.238,0.2379,0.2299,0.2298,0.2296,0.2297,0.2299,0.2301,0.2302,0.2297,0.2295,0.2294,0,0,0,0,0,0,0,0,0,0,0,0,0,0.2373,0.2417,0.2381,0.2372,0.237,0.2299,0.2298,0.2296,0.2297,0.2299,0.2301,0.2303,0.2297,0.2295,0.2294,0.2242,0,0,0.2287,0.2286,0,0,0,0,0,0,0,0,0.2376,0.2372,0.2374,0.2372,0.2371,0.2313,0.2309,0.2283,0.2297,0.2322,0.2302,0.2304,0.2309,0.2306,0.2282,0.2242,0.2242,0.2287,0.2286,0.2285,0.2285,0,0,0,0,0,0,0,0.2379,0.2374,0.2346,0.2373,0.2371,0.233,0.2327,0.2303,0.2306,0.232,0.2321,0.2315,0.2309,0.2284,0.2282,0.2242,0.2287,0.2285,0.2284,0.2283,0.2269,0.227,0,0,0,0,0,0,0.2398,0.2378,0.2349,0.2344,0.2381,0.2329,0.2325,0.2327,0.2304,0.2302,0.2313,0.2315,0.2286,0.2285,0.2282,0.2324,0.2285,0.2283,0.2282,0.2268,0.2269,0.227,0,0,0,0,0,0,0.2399,0.2396,0.2352,0.236,0.2352,0.2327,0.2329,0.2325,0.2307,0.2298,0.2298,0.2301,0.2288,0.2285,0.2277,0.2321,0.2282,0.228,0.2267,0.2269,0.227,0.2342,0,0,0,0,0,0,0.24,0.2397,0.2397,0.2362,0.2353,0.2308,0.2327,0.2322,0.2301,0.2302,0.2287,0.2288,0.2289,0.228,0.2275,0.2317,0.2279,0.2266,0.2268,0.2269,0.2338,0.2345,0.2351,0,0,0,0,0,0.2402,0.2384,0.2398,0.2394,0.2357,0.2307,0.2297,0.2284,0.2298,0.2277,0.2286,0.2289,0.2288,0.2277,0.2272,0.2315,0.2266,0.2267,0.2269,0.2335,0.2344,0.2351,0,0,0,0,0,0,0.2399,0.2382,0.2396,0.2377,0.235,0.2308,0.2282,0.228,0.2263,0.2275,0.2278,0.2278,0.2294,0.228,0.2269,0.2315,0.2285,0.2286,0.2338,0.2345,0.2352,0.2387,0.2277,0,0,0,0,0,0.2401,0.2385,0.2367,0.235,0.2337,0.2312,0.229,0.2285,0.2268,0.2262,0.226,0.227,0.2291,0.2299,0.2295,0.2299,0.2301,0.2329,0.2336,0.2341,0.2366,0.239,0.2401,0.2276,0.2276,0.2276,0,0,0.2397,0.2384,0.2377,0.2348,0.2326,0.2319,0.2302,0.2267,0.2291,0.2264,0.2284,0.2279,0.2294,0.2318,0.2326,0.2316,0.2376,0.2344,0.2349,0.2371,0.2393,0.2405,0.2416,0.2278,0.2277,0.2277,0,0,0.2363,0.2368,0.234,0.233,0.2302,0.2302,0.2297,0.2265,0.2279,0.2283,0.2298,0.2321,0.2317,0.2358,0.2379,0.2411,0.2403,0.2406,0.2476,0.2499,0.251,0.252,0.2532,0.2543,0.2418,0.2418,0.2418,0,0.2361,0.2346,0.2321,0.2304,0.2318,0.2305,0.2308,0.2313,0.2292,0.232,0.2304,0.235,0.2354,0.2433,0.2459,0.2433,0.243,0.2448,0.251,0.2519,0.2528,0.2539,0.2549,0.2422,0.2421,0.2421,0.2421,0,0.2303,0.2321,0.2301,0.2308,0.2309,0.2302,0.2329,0.234,0.2365,0.2383,0.2437,0.2438,0.2475,0.2487,0.249,0.2567,0.2538,0.2509,0.2494,0.2545,0.2552,0.2562,0.2427,0.2426,0.2425,0.2424,0,0,0.2233,0.2263,0.2261,0.2296,0.2326,0.2316,0.2382,0.2431,0.2473,0.2488,0.2549,0.2606,0.2599,0.2623,0.2623,0.2657,0.2717,0.2617,0.2617,0.2639,0.2758,0.2767,0.2778,0.269,0.2692,0.2694,0.2736,0,0.2208,0.2215,0.2238,0.2284,0.2308,0.2363,0.242,0.2473,0.2516,0.2562,0.262,0.2657,0.2656,0.2666,0.271,0.2706,0.2747,0.2709,0.2699,0.2699,0.2709,0.2792,0.2771,0.2809,0.2746,0.2747,0.2748,0,0.2144,0.2173,0.2215,0.2317,0.2327,0.2358,0.2461,0.2507,0.2599,0.2629,0.2698,0.2717,0.2802,0.2765,0.2836,0.2804,0.2803,0.2799,0.2799,0.2796,0.2728,0.2748,0.2829,0.2809,0.2763,0.2762,0.2761,0,0.2105,0.2165,0.2215,0.2243,0.2337,0.238,0.2435,0.2525,0.257,0.2667,0.27,0.2787,0.2822,0.2852,0.2878,0.2849,0.293,0.2878,0.2893,0.2892,0.2871,0.2865,0.2944,0.2936,0.2936,0.2935,0.2935,0,0.2084,0.2119,0.2199,0.2222,0.2279,0.2357,0.2416,0.2482,0.2571,0.2624,0.2721,0.2774,0.2843,0.29,0.2906,0.295,0.2958,0.294,0.2922,0.2893,0.2889,0.2866,0.2825,0.2937,0.2937,0.2936,0.2936,0,0.2037,0.2091,0.2143,0.2237,0.226,0.2298,0.2388,0.2424,0.2525,0.2599,0.2635,0.2771,0.2863,0.2931,0.2981,0.2985,0.2951,0.3021,0.2988,0.2967,0.2954,0.2916,0.2798,0.2704,0.3046,0.3047,0.3048,0,0.2015,0.2037,0.2121,0.2138,0.2178,0.2238,0.2271,0.238,0.2426,0.2591,0.2624,0.2764,0.2857,0.2973,0.3029,0.3082,0.2973,0.3062,0.3021,0.2993,0.2936,0.2754,0.2669,0.3009,0.301,0.301,0.301,0,0.1973,0.1998,0.2034,0.2072,0.2105,0.2141,0.2208,0.2236,0.2371,0.2458,0.2579,0.2676,0.2863,0.295,0.306,0.3077,0.2949,0.3068,0.3051,0.2949,0.2743,0.2629,0.2929,0.3012,0.3012,0.3012,0.3012,0.3012,0.1921,0.1931,0.1967,0.1993,0.202,0.2031,0.2037,0.2124,0.2194,0.2321,0.2468,0.2612,0.2852,0.3031,0.3021,0.3076,0.2958,0.3042,0.3007,0.2831,0.2721,0.3035,0.3088,0.3088,0.3088,0.3088,0.3088,0,0.1849,0.1864,0.1884,0.1903,0.1886,0.1937,0.1975,0.1979,0.2033,0.2226,0.2343,0.2622,0.2776,0.2937,0.3114,0.3056,0.2855,0.2991,0.2755,0.2678,0.3004,0.2991,0.3013,0.3013,0.3013,0.3013,0.3013,0.3013,0.1812,0.1799,0.1809,0.1757,0.1764,0.1725,0.1726,0.1763,0.1885,0.2058,0.2247,0.2419,0.2771,0.3048,0.3109,0.3035,0.2794,0.2691,0.2602,0.2907,0.2909,0.291,0.2892,0.2892,0.2892,0.219,0.2185,0.2182]},{"header":{"parameterUnit":"m.s-1","parameterCategory":2,"la1":30.2991,"la2":30.254,"lo1":-89.0895,"lo2":-89.0444,"dy":0.0017,"dx":0.0017,"nx":28,"ny":28,"refTime":"2024-04-30T03:00:00:Z","depth":"0","parameterNumber":3,"parameterNumberName":"V-component_of_CURRENTS"},"data":[0,0,0,0,0,0,0,0,0,0,0,0,0,0,0,0,0,0,0,0,0,0,0,0,0,0,0,0,0,0,0,0,0,0,0,0,0,0,0,0,0,0,0,0,0,0,0,0,0,0,0,0,0,0,0,0,0,0,0.0088,0.0087,0,-0.0,-0.0001,-0.0003,-0.0057,-0.0057,-0.0057,-0.0057,-0.0146,-0.0149,-0.0151,0,0,0,0,0,0,0,0,0,0,0,0,0,0.0106,0.0107,0.0088,0.0087,0.0086,0.0,-0.0001,-0.0003,-0.0057,-0.0057,-0.0057,-0.0057,-0.0145,-0.0148,-0.0151,0,0,0,0,0,0,0,0,0,0,0,0,0,0.0063,0.0107,0.0088,0.0051,0.0047,0.0,-0.0002,-0.0003,-0.0057,-0.0057,-0.0057,-0.0057,-0.0144,-0.0148,-0.0152,-0.0175,0,0,-0.0163,-0.0164,0,0,0,0,0,0,0,0,0.0066,0.0062,0.0057,0.0054,0.0049,-0.0015,-0.0027,-0.006,-0.0057,-0.0022,-0.0057,-0.0057,-0.01,-0.0107,-0.0129,-0.0179,-0.0183,-0.0163,-0.0165,-0.0167,-0.0168,0,0,0,0,0,0,0,0.0069,0.0065,0.0049,0.0057,0.0052,0.0005,-0.0001,-0.0035,-0.0063,-0.0025,-0.0028,-0.0032,-0.0103,-0.0125,-0.0131,-0.0184,-0.0163,-0.0166,-0.0168,-0.017,-0.0224,-0.0223,0,0,0,0,0,0,0.0093,0.0069,0.0052,0.0047,0.0062,0.0005,-0.0001,0.0003,-0.0063,-0.0071,-0.0032,-0.0034,-0.0119,-0.0127,-0.0135,-0.0128,-0.0167,-0.017,-0.0172,-0.0224,-0.0224,-0.0223,0,0,0,0,0,0,0.0094,0.0092,0.0056,0.0058,0.005,0.0006,0.001,0.0001,-0.0017,-0.0067,-0.0077,-0.0039,-0.012,-0.013,-0.0149,-0.0133,-0.0172,-0.0175,-0.0225,-0.0224,-0.0223,-0.0139,0,0,0,0,0,0,0.0095,0.0093,0.0103,0.006,0.0051,0.0034,0.001,-0.0,-0.0018,-0.0022,-0.0077,-0.0086,-0.012,-0.0143,-0.0152,-0.0139,-0.0178,-0.0226,-0.0225,-0.0223,-0.0143,-0.0135,-0.0129,0,0,0,0,0,0.0096,0.0108,0.0104,0.0102,0.0067,0.0035,0.0025,-0.001,-0.0018,-0.0026,-0.0052,-0.0084,-0.0141,-0.0145,-0.0156,-0.0144,-0.0227,-0.0225,-0.0224,-0.0146,-0.0137,-0.0129,0,0,0,0,0,0,0.0122,0.0103,0.0097,0.0104,0.0077,0.0027,0.0017,-0.0003,-0.0033,-0.0033,-0.0078,-0.0088,-0.01,-0.0133,-0.0136,-0.0155,-0.0188,-0.0189,-0.0125,-0.0117,-0.0111,-0.0088,-0.0181,0,0,0,0,0,0.0135,0.0139,0.011,0.0116,0.0105,0.0064,0.0047,0.0026,-0.0005,-0.0019,-0.0052,-0.0083,-0.0105,-0.0118,-0.0149,-0.016,-0.0198,-0.0158,-0.0151,-0.0145,-0.0134,-0.0181,-0.0177,-0.0217,-0.0217,-0.0217,0,0,0.0149,0.0138,0.0142,0.0122,0.0096,0.0092,0.0053,0.0033,0.0042,-0.0022,-0.0023,-0.0064,-0.0103,-0.0113,-0.0121,-0.0136,-0.0153,-0.0143,-0.0137,-0.0129,-0.0179,-0.0175,-0.0172,-0.0216,-0.0217,-0.0217,0,0,0.0172,0.0167,0.0175,0.016,0.0134,0.0111,0.0112,0.007,0.0064,0.0054,0.0018,-0.0006,-0.0048,-0.0068,-0.0083,-0.0056,-0.0116,-0.007,-0.0016,-0.0061,-0.0059,-0.0056,-0.0094,-0.0096,-0.0065,-0.0064,-0.0064,0,0.0193,0.0205,0.017,0.0174,0.0179,0.0129,0.0145,0.0127,0.0089,0.0094,0.0068,0.0017,-0.0021,-0.002,-0.0012,-0.0039,-0.0077,-0.0043,-0.0052,-0.0051,-0.005,-0.0089,-0.0093,-0.006,-0.0061,-0.0061,-0.0061,0,0.0211,0.0233,0.0235,0.0235,0.0228,0.0233,0.0214,0.0212,0.0198,0.0174,0.0165,0.0109,0.0081,0.0063,0.0034,0.0027,-0.0006,-0.004,-0.0071,-0.0041,-0.0084,-0.0089,-0.0054,-0.0056,-0.0057,-0.0058,0,0,0.024,0.0253,0.0256,0.0286,0.0271,0.0272,0.0296,0.0301,0.0321,0.0275,0.0294,0.0247,0.02,0.0181,0.0132,0.0093,0.0063,0.0034,0.003,0.0002,-0.0039,-0.0048,-0.0055,0.0019,0.0019,0.0018,-0.0069,0,0.0275,0.0321,0.0309,0.0363,0.0393,0.0377,0.0407,0.0403,0.0385,0.0383,0.0331,0.0311,0.0251,0.0232,0.0187,0.0089,0.0052,0.009,-0.0067,-0.0072,-0.0081,-0.006,-0.0027,-0.0101,-0.0074,-0.0075,-0.0076,0,0.03,0.0338,0.0402,0.0464,0.0472,0.049,0.0534,0.0551,0.0533,0.0514,0.0478,0.0419,0.0367,0.0304,0.0167,0.0188,0.0091,0.0011,0.0005,-0.0035,-0.009,-0.0129,-0.0111,-0.0257,-0.0084,-0.0083,-0.0082,0,0.0353,0.0408,0.0474,0.0491,0.0536,0.057,0.0589,0.059,0.0615,0.0586,0.058,0.0502,0.0458,0.0333,0.0173,0.0162,0.0011,-0.0028,-0.0123,-0.0125,-0.0141,-0.0143,-0.0277,-0.0118,-0.0118,-0.0117,-0.0117,0,0.041,0.0462,0.0507,0.0544,0.0627,0.063,0.0694,0.07,0.0703,0.0726,0.0644,0.0638,0.0458,0.0351,0.0203,0.003,0.0031,-0.0104,-0.0145,-0.011,-0.0109,-0.0272,-0.0357,-0.0121,-0.012,-0.0119,-0.0119,0,0.046,0.0487,0.0569,0.0633,0.0655,0.0712,0.0764,0.0797,0.0791,0.0819,0.0812,0.0727,0.0592,0.0413,0.0203,0.0071,-0.0185,-0.0156,-0.0096,-0.0128,-0.0342,-0.0421,-0.0606,-0.0706,-0.0269,-0.027,-0.027,0,0.0493,0.0541,0.0631,0.0675,0.0704,0.0777,0.0821,0.0841,0.087,0.0877,0.0892,0.0788,0.0735,0.0436,0.0182,-0.0064,-0.0218,-0.0201,-0.021,-0.034,-0.0461,-0.0525,-0.0601,-0.0203,-0.0203,-0.0203,-0.0203,0,0.0558,0.0583,0.0645,0.0737,0.0795,0.0869,0.0929,0.097,0.0993,0.1022,0.1039,0.1009,0.0746,0.0526,0.0192,0.0009,-0.0304,-0.0208,-0.0366,-0.0431,-0.0488,-0.0607,-0.0159,-0.0202,-0.0203,-0.0203,-0.0203,-0.0203,0.0596,0.0648,0.0717,0.0801,0.0867,0.0943,0.1009,0.1067,0.1142,0.1209,0.117,0.1189,0.0877,0.0437,0.0147,-0.0304,-0.0334,-0.0422,-0.0512,-0.0567,-0.0652,-0.0194,-0.0271,-0.0271,-0.0272,-0.0272,-0.0272,0,0.0643,0.0691,0.0769,0.0865,0.0931,0.0965,0.1066,0.1134,0.1232,0.1335,0.1375,0.1312,0.0892,0.0465,-0.0134,-0.0504,-0.0675,-0.0717,-0.0803,-0.0873,-0.0478,-0.0462,-0.0555,-0.0555,-0.0555,-0.0555,-0.0555,-0.0555,0.0669,0.0742,0.0776,0.0891,0.0954,0.1057,0.1122,0.1234,0.1345,0.1518,0.1619,0.166,0.141,0.0254,-0.0559,-0.0788,-0.1068,-0.1129,-0.1304,-0.1021,-0.1,-0.098,-0.0985,-0.1186,-0.1187,-0.1648,-0.1652,-0.1656]}],[{"header":{"parameterUnit":"m.s-1","parameterCategory":2,"la1":30.2991,"la2":30.254,"lo1":-89.0895,"lo2":-89.0444,"dy":0.0017,"dx":0.0017,"nx":28,"ny":28,"refTime":"2024-04-30T03:00:00:Z","depth":"2","parameterNumber":2,"parameterNumberName":"U-component_of_CURRENTS"},"data":[0,0,0,0,0,0,0,0,0,0,0,0,0,0,0,0,0,0,0,0,0,0,0,0,0,0,0,0,0,0,0,0,0,0,0,0,0,0,0,0,0,0,0,0,0,0,0,0,0,0,0,0,0,0,0,0,0,0,0.2396,0.2395,0,0.2321,0.232,0.2319,0.2331,0.2332,0.2334,0.2335,0.2334,0.2333,0.2331,0,0,0,0,0,0,0,0,0,0,0,0,0,0.2403,0.2404,0.2396,0.2395,0.2394,0.2321,0.232,0.2319,0.233,0.2332,0.2334,0.2336,0.2334,0.2333,0.2331,0,0,0,0,0,0,0,0,0,0,0,0,0,0.237,0.2404,0.2396,0.2393,0.2392,0.2321,0.232,0.2318,0.233,0.2332,0.2334,0.2336,0.2335,0.2333,0.2331,0.2275,0,0,0.2325,0.2324,0,0,0,0,0,0,0,0,0.2372,0.237,0.2394,0.2393,0.2392,0.2339,0.2322,0.2308,0.2329,0.2352,0.2335,0.2337,0.2342,0.2339,0.2317,0.2275,0.2275,0.2325,0.2323,0.2322,0.2322,0,0,0,0,0,0,0,0.2375,0.2372,0.2365,0.2393,0.2392,0.2345,0.2344,0.2318,0.2336,0.235,0.2351,0.2345,0.2342,0.2319,0.2317,0.2275,0.2325,0.2323,0.2321,0.2321,0.2293,0.2294,0,0,0,0,0,0,0.2393,0.2375,0.2367,0.2363,0.2389,0.2344,0.2342,0.2352,0.2334,0.2334,0.2343,0.2345,0.2321,0.232,0.2318,0.2355,0.2322,0.232,0.2319,0.2293,0.2293,0.2294,0,0,0,0,0,0,0.2393,0.2393,0.237,0.2367,0.2361,0.2343,0.2353,0.235,0.2333,0.2328,0.2329,0.2331,0.2323,0.232,0.2309,0.2352,0.232,0.2318,0.2292,0.2293,0.2293,0.2364,0,0,0,0,0,0,0.2394,0.2394,0.2399,0.2369,0.2362,0.2327,0.2351,0.2347,0.2326,0.2329,0.2318,0.232,0.2324,0.2312,0.2307,0.2348,0.2316,0.2291,0.2292,0.2293,0.2361,0.2367,0.2372,0,0,0,0,0,0.2395,0.2382,0.24,0.2399,0.2374,0.2326,0.2317,0.2309,0.2324,0.2304,0.2313,0.2321,0.2316,0.231,0.2304,0.2346,0.2291,0.2292,0.2293,0.2358,0.2366,0.2372,0,0,0,0,0,0,0.2389,0.2382,0.2401,0.2391,0.2366,0.2329,0.2303,0.2303,0.2288,0.23,0.2305,0.2306,0.232,0.2306,0.2299,0.234,0.2312,0.2312,0.2364,0.2371,0.2376,0.2414,0.2314,0,0,0,0,0,0.2393,0.2384,0.2371,0.2363,0.235,0.2329,0.2307,0.2306,0.229,0.2285,0.2285,0.2295,0.2314,0.2321,0.2317,0.2317,0.232,0.2346,0.2351,0.2356,0.2382,0.2403,0.2414,0.2297,0.2297,0.2297,0,0,0.2391,0.2383,0.2381,0.236,0.234,0.2334,0.232,0.2287,0.2309,0.2287,0.2306,0.2301,0.2314,0.2336,0.2343,0.2335,0.2388,0.2358,0.2362,0.2386,0.2406,0.2417,0.2428,0.2298,0.2298,0.2298,0,0,0.236,0.2373,0.235,0.2341,0.2315,0.2315,0.231,0.2281,0.2296,0.2298,0.2315,0.2337,0.233,0.2371,0.2391,0.2416,0.2411,0.2409,0.2477,0.2497,0.2508,0.2517,0.2529,0.2539,0.242,0.242,0.242,0,0.236,0.2352,0.2331,0.2315,0.2328,0.2317,0.2319,0.2324,0.2305,0.2331,0.2318,0.236,0.2366,0.2439,0.2464,0.2437,0.2433,0.2455,0.2507,0.2516,0.2525,0.2536,0.2546,0.2424,0.2423,0.2423,0.2423,0,0.2306,0.2327,0.2308,0.2317,0.2318,0.231,0.2336,0.2347,0.2371,0.2389,0.2439,0.2442,0.2478,0.2488,0.2492,0.2564,0.2537,0.2507,0.2497,0.2541,0.2549,0.2558,0.2429,0.2428,0.2427,0.2426,0,0,0.2246,0.2274,0.2271,0.2306,0.2333,0.2325,0.2385,0.2431,0.2472,0.2485,0.2543,0.2598,0.2595,0.2617,0.2618,0.265,0.2709,0.2612,0.2612,0.2637,0.2745,0.2751,0.2761,0.268,0.2682,0.2683,0.2725,0,0.2221,0.2227,0.2249,0.2293,0.2315,0.2367,0.2422,0.2472,0.2513,0.2556,0.261,0.2645,0.2647,0.2659,0.2701,0.2698,0.2737,0.2701,0.2688,0.2688,0.2699,0.2774,0.2564,0.2586,0.2734,0.2735,0.2736,0,0.216,0.2188,0.2227,0.2325,0.2335,0.2365,0.2466,0.2509,0.2594,0.2623,0.2687,0.2704,0.2786,0.2752,0.282,0.279,0.2789,0.2785,0.2786,0.2781,0.2714,0.2564,0.2597,0.2751,0.275,0.2749,0.2748,0,0.2123,0.218,0.2227,0.2254,0.2344,0.2388,0.2441,0.2528,0.2571,0.2661,0.2692,0.2773,0.2807,0.2835,0.2862,0.2833,0.2912,0.2859,0.2872,0.287,0.2689,0.2669,0.2915,0.2915,0.2914,0.2914,0.2914,0,0.2102,0.2136,0.2213,0.2235,0.2293,0.2368,0.2428,0.2493,0.2576,0.2625,0.2714,0.2764,0.2827,0.2881,0.2887,0.2929,0.2937,0.2918,0.2899,0.2706,0.2689,0.2824,0.2813,0.2916,0.2915,0.2915,0.2915,0,0.2056,0.2108,0.2159,0.2251,0.2275,0.2314,0.2403,0.2437,0.2535,0.2603,0.2636,0.2762,0.285,0.2913,0.2961,0.2962,0.299,0.2996,0.2776,0.2734,0.2923,0.2914,0.3014,0.3015,0.3016,0.3017,0.3017,0,0.2036,0.2057,0.2139,0.2156,0.2195,0.2257,0.2289,0.2396,0.2438,0.2596,0.2623,0.2756,0.284,0.295,0.2974,0.3016,0.3031,0.2835,0.2766,0.2971,0.2941,0.2932,0.2923,0.2532,0.2529,0.2526,0.2524,0,0.1995,0.202,0.2055,0.2092,0.2124,0.2159,0.2225,0.2252,0.2383,0.2463,0.2576,0.2664,0.2817,0.2796,0.2887,0.2871,0.2817,0.2784,0.3044,0.2563,0.2527,0.2495,0.2499,0.2499,0.2501,0.2503,0.2504,0.2505,0.1946,0.1955,0.199,0.2015,0.2041,0.2051,0.2057,0.2135,0.22,0.23,0.2444,0.2517,0.2606,0.2659,0.2604,0.2574,0.2766,0.2632,0.2636,0.2643,0.2604,0.2574,0.2546,0.2548,0.2551,0.2553,0.2555,0,0.1875,0.189,0.1909,0.1926,0.1907,0.1959,0.1995,0.1988,0.203,0.2162,0.2253,0.216,0.22,0.2272,0.2214,0.2259,0.2172,0.215,0.2005,0.2036,0.2063,0.1986,0.1767,0.1764,0.1761,0.1758,0,0,0.1838,0.1823,0.1832,0.178,0.1788,0.1745,0.1746,0.1761,0.1832,0.1861,0.1902,0.2095,0.2236,0.1959,0.196,0.1849,0.1906,0.1776,0.2424,0.2287,0.2307,0.238,0.2306,0,0,0,0,0]},{"header":{"parameterUnit":"m.s-1","parameterCategory":2,"la1":30.2991,"la2":30.254,"lo1":-89.0895,"lo2":-89.0444,"dy":0.0017,"dx":0.0017,"nx":28,"ny":28,"refTime":"2024-04-30T03:00:00:Z","depth":"2","parameterNumber":3,"parameterNumberName":"V-component_of_CURRENTS"},"data":[0,0,0,0,0,0,0,0,0,0,0,0,0,0,0,0,0,0,0,0,0,0,0,0,0,0,0,0,0,0,0,0,0,0,0,0,0,0,0,0,0,0,0,0,0,0,0,0,0,0,0,0,0,0,0,0,0,0,0.0051,0.005,0,-0.0035,-0.0036,-0.0038,-0.009,-0.009,-0.009,-0.009,-0.0179,-0.0181,-0.0183,0,0,0,0,0,0,0,0,0,0,0,0,0,0.0069,0.0069,0.0051,0.005,0.005,-0.0035,-0.0037,-0.0038,-0.009,-0.009,-0.009,-0.009,-0.0178,-0.0181,-0.0184,0,0,0,0,0,0,0,0,0,0,0,0,0,0.0027,0.0069,0.0051,0.0016,0.0012,-0.0035,-0.0037,-0.0038,-0.009,-0.009,-0.009,-0.009,-0.0177,-0.018,-0.0184,-0.0209,0,0,-0.0195,-0.0197,0,0,0,0,0,0,0,0,0.0029,0.0026,0.0022,0.0019,0.0014,-0.0049,-0.0063,-0.0094,-0.009,-0.0055,-0.009,-0.009,-0.0133,-0.014,-0.0162,-0.0213,-0.0217,-0.0196,-0.0198,-0.0199,-0.02,0,0,0,0,0,0,0,0.0033,0.0029,0.0013,0.0021,0.0017,-0.003,-0.0035,-0.007,-0.0096,-0.0058,-0.0061,-0.0065,-0.0136,-0.0158,-0.0164,-0.0218,-0.0195,-0.0199,-0.0201,-0.0202,-0.0263,-0.0262,0,0,0,0,0,0,0.0056,0.0032,0.0016,0.0011,0.0026,-0.003,-0.0036,-0.0031,-0.0096,-0.0105,-0.0065,-0.0067,-0.0152,-0.016,-0.0168,-0.0167,-0.0199,-0.0203,-0.0205,-0.0263,-0.0263,-0.0262,0,0,0,0,0,0,0.0056,0.0055,0.002,0.0022,0.0014,-0.0029,-0.0024,-0.0033,-0.0051,-0.0101,-0.011,-0.0073,-0.0152,-0.0162,-0.0183,-0.0172,-0.0204,-0.0208,-0.0264,-0.0263,-0.0262,-0.0188,0,0,0,0,0,0,0.0057,0.0056,0.0065,0.0024,0.0015,-0.0003,-0.0024,-0.0035,-0.0052,-0.0056,-0.0111,-0.0119,-0.0153,-0.0177,-0.0187,-0.0178,-0.021,-0.0265,-0.0264,-0.0263,-0.0191,-0.0184,-0.0179,0,0,0,0,0,0.0059,0.007,0.0067,0.0065,0.0031,-0.0002,-0.0012,-0.0045,-0.0052,-0.0061,-0.0087,-0.0117,-0.0177,-0.018,-0.0191,-0.0183,-0.0265,-0.0264,-0.0263,-0.0194,-0.0186,-0.0179,0,0,0,0,0,0,0.0084,0.0065,0.006,0.0067,0.0039,-0.001,-0.002,-0.0039,-0.0069,-0.0069,-0.0113,-0.0123,-0.0138,-0.017,-0.0171,-0.0196,-0.0225,-0.0226,-0.0169,-0.0162,-0.0156,-0.0132,-0.0214,0,0,0,0,0,0.0097,0.01,0.0071,0.0077,0.0065,0.0025,0.0009,-0.0012,-0.0042,-0.0056,-0.0089,-0.012,-0.0144,-0.0158,-0.0189,-0.0205,-0.0239,-0.0206,-0.02,-0.0194,-0.0182,-0.0228,-0.0225,-0.0258,-0.0258,-0.0258,0,0,0.011,0.01,0.0103,0.0083,0.0057,0.0049,0.0014,-0.0006,-0.0001,-0.006,-0.0066,-0.0103,-0.0143,-0.0157,-0.0166,-0.018,-0.0202,-0.0193,-0.0188,-0.0178,-0.0227,-0.0224,-0.0221,-0.0257,-0.0257,-0.0257,0,0,0.0131,0.0128,0.0133,0.0117,0.009,0.0066,0.0067,0.0025,0.0017,0.0005,-0.0029,-0.0053,-0.0096,-0.0118,-0.0134,-0.0114,-0.0169,-0.0128,-0.0079,-0.0124,-0.0122,-0.012,-0.0154,-0.0156,-0.0125,-0.0125,-0.0124,0,0.0151,0.0159,0.0127,0.0128,0.013,0.0082,0.0094,0.0074,0.0036,0.0038,0.0016,-0.0036,-0.0073,-0.0079,-0.0072,-0.0099,-0.0134,-0.0103,-0.0116,-0.0115,-0.0115,-0.015,-0.0153,-0.0121,-0.0121,-0.0122,-0.0122,0,0.0164,0.0182,0.0183,0.0178,0.017,0.0171,0.0149,0.0146,0.0132,0.0107,0.0096,0.0043,0.0015,-0.0004,-0.0032,-0.0043,-0.0071,-0.0104,-0.0132,-0.0107,-0.0146,-0.015,-0.0115,-0.0117,-0.0118,-0.0119,0,0,0.0193,0.0197,0.02,0.0225,0.0206,0.0205,0.0221,0.022,0.0237,0.0192,0.0207,0.016,0.012,0.01,0.0054,0.0016,-0.0014,-0.0037,-0.0042,-0.0066,-0.011,-0.0118,-0.0125,-0.0056,-0.0057,-0.0057,-0.0136,0,0.0221,0.0257,0.0243,0.0287,0.0311,0.0294,0.0317,0.0311,0.0291,0.0287,0.0236,0.0217,0.0163,0.0148,0.0104,0.0012,-0.0024,0.0011,-0.0134,-0.0138,-0.0146,-0.013,-0.0102,-0.0169,-0.014,-0.0141,-0.0142,0,0.0242,0.0271,0.0324,0.0377,0.0384,0.0399,0.0437,0.0448,0.0426,0.0409,0.0373,0.0318,0.0267,0.0211,0.0082,0.0103,0.0012,-0.0063,-0.0069,-0.0104,-0.0155,-0.0192,-0.018,-0.015,-0.015,-0.0149,-0.0149,0,0.0291,0.0334,0.0391,0.0404,0.044,0.0473,0.0491,0.0487,0.0508,0.0479,0.0473,0.0396,0.0359,0.0239,0.0091,0.008,-0.0061,-0.01,-0.0188,-0.019,-0.0207,-0.0209,-0.0186,-0.0186,-0.0185,-0.0185,-0.0185,0,0.034,0.0385,0.0423,0.0455,0.0533,0.0534,0.0595,0.0599,0.0599,0.062,0.0537,0.0532,0.036,0.0259,0.0118,-0.0043,-0.0042,-0.0171,-0.0209,-0.018,-0.0178,-0.0196,-0.0196,-0.0188,-0.0187,-0.0187,-0.0186,0,0.0389,0.0409,0.0481,0.0537,0.0559,0.0616,0.0667,0.0697,0.0691,0.0716,0.071,0.0624,0.0498,0.0324,0.0125,-0.0001,-0.0159,-0.0216,-0.0161,-0.0191,-0.0265,-0.0261,-0.0321,-0.0322,-0.0323,-0.0324,-0.0324,0,0.0419,0.0461,0.0542,0.0584,0.0612,0.0685,0.0726,0.0745,0.0772,0.0778,0.0791,0.0692,0.0639,0.0354,0.0107,-0.0129,-0.0161,-0.0259,-0.0273,-0.0246,-0.0278,-0.0273,-0.0267,-0.0269,-0.027,-0.027,-0.027,0,0.0479,0.0504,0.0559,0.0648,0.0705,0.0775,0.0835,0.0875,0.0896,0.0923,0.0941,0.0909,0.0654,0.0421,0.0097,-0.0061,-0.022,-0.0268,-0.0264,-0.0232,-0.0202,-0.0232,-0.0228,-0.027,-0.027,-0.027,-0.027,-0.027,0.052,0.0567,0.0631,0.0714,0.0778,0.0853,0.0919,0.0967,0.1038,0.1082,0.1052,0.1013,0.0754,0.0349,0.0067,-0.0229,-0.0218,-0.0318,-0.0316,-0.0315,-0.0287,-0.026,-0.0333,-0.0333,-0.0334,-0.0334,-0.0334,0,0.0566,0.0613,0.0687,0.078,0.0843,0.088,0.0979,0.1026,0.1112,0.1158,0.1179,0.0953,0.0699,0.0401,-0.0036,-0.0293,-0.0311,-0.0369,-0.0336,-0.0333,-0.0331,-0.0304,-0.0355,-0.0356,-0.0357,-0.0358,0,0,0.059,0.0659,0.0691,0.0807,0.0874,0.0965,0.1029,0.1101,0.1156,0.1201,0.1197,0.1149,0.0799,0.0482,0.0131,-0.0116,-0.0166,-0.0162,-0.0116,-0.0033,-0.0029,-0.0272,-0.0223,0,0,0,0,0]}],[{"header":{"parameterUnit":"m.s-1","parameterCategory":2,"la1":30.2991,"la2":30.254,"lo1":-89.0895,"lo2":-89.0444,"dy":0.0017,"dx":0.0017,"nx":28,"ny":28,"refTime":"2024-04-30T03:00:00:Z","depth":"4","parameterNumber":2,"parameterNumberName":"U-component_of_CURRENTS"},"data":[0,0,0,0,0,0,0,0,0,0,0,0,0,0,0,0,0,0,0,0,0,0,0,0,0,0,0,0,0,0,0,0,0,0,0,0,0,0,0,0,0,0,0,0,0,0,0,0,0,0,0,0,0,0,0,0,0,0,0.14,0.1402,0,0.1507,0.1508,0.1509,0.1532,0.1532,0.1531,0.1531,0.1567,0.1568,0.157,0,0,0,0,0,0,0,0,0,0,0,0,0,0.1226,0.1229,0.14,0.1402,0.1403,0.1507,0.1508,0.1509,0.1532,0.1532,0.1531,0.1531,0.1567,0.1568,0.157,0,0,0,0,0,0,0,0,0,0,0,0,0,0.131,0.1229,0.14,0.1431,0.1435,0.1507,0.1508,0.1509,0.1532,0.1532,0.1531,0.1531,0.1566,0.1568,0.157,0.1592,0,0,0.1576,0.1577,0,0,0,0,0,0,0,0,0.1305,0.1315,0.1425,0.1429,0.1434,0.151,0.146,0.1535,0.1532,0.149,0.1531,0.153,0.1545,0.1548,0.1564,0.1594,0.1595,0.1576,0.1577,0.1578,0.1578,0,0,0,0,0,0,0,0.1299,0.1311,0.1438,0.1427,0.1432,0.1444,0.1454,0.1474,0.1514,0.1494,0.1497,0.1517,0.1546,0.1562,0.1565,0.1596,0.1576,0.1578,0.1579,0.158,0.1704,0.1706,0,0,0,0,0,0,0.1296,0.1306,0.1434,0.1441,0.1372,0.1447,0.1459,0.1482,0.1516,0.1522,0.1517,0.1518,0.1559,0.1563,0.1566,0.1643,0.1578,0.158,0.1581,0.1702,0.1704,0.1706,0,0,0,0,0,0,0.1292,0.1306,0.143,0.1379,0.1396,0.1451,0.1477,0.1485,0.1536,0.1535,0.1539,0.1565,0.1559,0.1564,0.1612,0.1642,0.1581,0.1582,0.1699,0.1702,0.1705,0.1764,0,0,0,0,0,0,0.1286,0.1304,0.1343,0.1379,0.1399,0.1494,0.1478,0.1487,0.1549,0.1551,0.1576,0.1577,0.1559,0.161,0.1614,0.1644,0.1584,0.1696,0.17,0.1704,0.1759,0.1769,0.1777,0,0,0,0,0,0.128,0.1332,0.1344,0.1361,0.1443,0.1496,0.1508,0.154,0.1552,0.1583,0.16,0.1578,0.1638,0.1614,0.1618,0.1648,0.1694,0.1699,0.1704,0.1755,0.1767,0.1777,0,0,0,0,0,0,0.1278,0.1341,0.1354,0.1424,0.1466,0.1502,0.1552,0.1569,0.161,0.162,0.161,0.1613,0.1664,0.1659,0.1632,0.1698,0.1662,0.1668,0.1699,0.171,0.1719,0.1703,0.1585,0,0,0,0,0,0.1296,0.1356,0.1398,0.146,0.1486,0.1526,0.1563,0.158,0.1614,0.1634,0.1648,0.1666,0.1684,0.17,0.1714,0.1758,0.1759,0.1782,0.179,0.1798,0.1791,0.1832,0.1843,0.1722,0.1722,0.1722,0,0,0.1312,0.136,0.1394,0.1466,0.1505,0.1537,0.1547,0.1613,0.1635,0.1631,0.1683,0.1702,0.1705,0.1745,0.1768,0.1747,0.1838,0.1804,0.181,0.1799,0.1838,0.185,0.186,0.1726,0.1725,0.1724,0,0,0.1356,0.1419,0.1469,0.1504,0.1572,0.1589,0.1615,0.1665,0.169,0.1743,0.1739,0.178,0.1819,0.1817,0.1822,0.1894,0.1884,0.191,0.194,0.1981,0.1991,0.1999,0.2031,0.2042,0.1912,0.1913,0.1913,0,0.137,0.1433,0.1492,0.1535,0.1566,0.1611,0.1642,0.1677,0.1733,0.1757,0.1768,0.1837,0.1844,0.1878,0.19,0.191,0.1935,0.1896,0.1991,0.1999,0.2007,0.2037,0.2048,0.1916,0.1916,0.1915,0.1915,0,0.1429,0.148,0.1517,0.1576,0.1617,0.1663,0.1699,0.1746,0.1786,0.181,0.1879,0.1902,0.1938,0.1954,0.1949,0.2008,0.201,0.1998,0.1958,0.2022,0.2051,0.2061,0.1921,0.192,0.1919,0.1918,0,0,0.1443,0.1535,0.1547,0.1569,0.164,0.1672,0.1723,0.1773,0.1816,0.1874,0.1926,0.197,0.2001,0.2008,0.202,0.2053,0.2134,0.2056,0.2057,0.2077,0.2233,0.2105,0.2104,0.2149,0.2151,0.2153,0.2236,0,0.1462,0.1527,0.1574,0.1625,0.1651,0.1703,0.1746,0.18,0.1856,0.192,0.1959,0.2019,0.2016,0.2056,0.2089,0.2127,0.2163,0.2112,0.2177,0.2178,0.2047,0.2112,0.2159,0.2244,0.2246,0.2248,0.2249,0,0.1486,0.1528,0.1575,0.1638,0.1659,0.1698,0.1778,0.1825,0.1912,0.1962,0.2028,0.2069,0.2134,0.2125,0.2214,0.2191,0.2217,0.2237,0.224,0.21,0.2068,0.2165,0.2268,0.2266,0.2265,0.2264,0.2262,0,0.1443,0.1522,0.1558,0.158,0.1661,0.1702,0.1755,0.1844,0.1895,0.2001,0.2058,0.2133,0.2198,0.2241,0.229,0.2272,0.238,0.2355,0.2258,0.225,0.2313,0.2302,0.2409,0.2409,0.2409,0.2409,0.2409,0,0.1421,0.1453,0.1548,0.1564,0.1622,0.1693,0.1769,0.1833,0.1935,0.1999,0.2086,0.2143,0.2238,0.2306,0.2324,0.2325,0.2413,0.2267,0.2263,0.2339,0.2331,0.2321,0.2309,0.2412,0.2411,0.2411,0.241,0,0.1356,0.1417,0.1462,0.156,0.1599,0.1644,0.1767,0.1818,0.1932,0.202,0.2061,0.2186,0.2275,0.2343,0.2427,0.2365,0.2378,0.2354,0.2443,0.2442,0.2212,0.2203,0.2247,0.2243,0.224,0.2237,0.2235,0,0.1322,0.134,0.1449,0.1482,0.1533,0.1618,0.1674,0.1799,0.1853,0.2025,0.2052,0.219,0.2257,0.2268,0.2349,0.2373,0.2344,0.2332,0.2246,0.2203,0.2196,0.2192,0.2188,0.223,0.2229,0.2228,0.2227,0,0.125,0.1303,0.1342,0.1421,0.1486,0.1548,0.1643,0.167,0.1815,0.1933,0.1993,0.204,0.2138,0.2189,0.2232,0.2239,0.2325,0.2297,0.2302,0.2222,0.2183,0.2178,0.2177,0.2216,0.2217,0.2219,0.2219,0,0.1203,0.1216,0.1286,0.1344,0.1421,0.1462,0.1519,0.1586,0.1655,0.1833,0.1853,0.1993,0.2118,0.2122,0.2159,0.2161,0.2122,0.2038,0.2057,0.207,0.1972,0.1894,0.1838,0,0,0,0,0,0.1148,0.116,0.1206,0.1262,0.1335,0.1388,0.1491,0.1552,0.169,0.1685,0.1762,0.1836,0.1896,0.1969,0.1937,0.2093,0.2138,0.2047,0.2052,0.2153,0.2166,0.2067,0,0,0,0,0,0,0.1109,0.1149,0.1173,0.1189,0.1215,0.1289,0.1351,0.1442,0.1444,0.1584,0.1624,0.1728,0.1814,0.1898,0.1904,0.1926,0.1892,0.2134,0.2129,0.2146,0.2158,0.2168,0.207,0,0,0,0,0]},{"header":{"parameterUnit":"m.s-1","parameterCategory":2,"la1":30.2991,"la2":30.254,"lo1":-89.0895,"lo2":-89.0444,"dy":0.0017,"dx":0.0017,"nx":28,"ny":28,"refTime":"2024-04-30T03:00:00:Z","depth":"4","parameterNumber":3,"parameterNumberName":"V-component_of_CURRENTS"},"data":[0,0,0,0,0,0,0,0,0,0,0,0,0,0,0,0,0,0,0,0,0,0,0,0,0,0,0,0,0,0,0,0,0,0,0,0,0,0,0,0,0,0,0,0,0,0,0,0,0,0,0,0,0,0,0,0,0,0,0.0081,0.0081,0,0.001,0.0009,0.0008,0.0004,0.0005,0.0006,0.0007,-0.0049,-0.0051,-0.0053,0,0,0,0,0,0,0,0,0,0,0,0,0,0.0137,0.0136,0.0082,0.0081,0.008,0.001,0.0009,0.0008,0.0004,0.0005,0.0006,0.0007,-0.0048,-0.005,-0.0053,0,0,0,0,0,0,0,0,0,0,0,0,0,0.0093,0.0136,0.0082,0.007,0.0068,0.001,0.0009,0.0008,0.0004,0.0005,0.0006,0.0008,-0.0047,-0.005,-0.0054,-0.0101,0,0,-0.0064,-0.0066,0,0,0,0,0,0,0,0,0.0096,0.0091,0.0073,0.0071,0.0069,0.0018,0.0008,-0.0028,0.0003,0.0027,0.0007,0.0008,-0.0025,-0.003,-0.0048,-0.0104,-0.0106,-0.0064,-0.0067,-0.0068,-0.0069,0,0,0,0,0,0,0,0.0099,0.0094,0.0052,0.0072,0.0069,0.0042,0.0038,0.0001,-0.0006,0.0025,0.0025,0.0018,-0.0026,-0.0045,-0.0049,-0.0107,-0.0064,-0.0067,-0.007,-0.0071,-0.0176,-0.0177,0,0,0,0,0,0,0.0112,0.0097,0.0055,0.005,0.0087,0.004,0.0035,0.0032,-0.0006,-0.001,0.0017,0.0018,-0.004,-0.0045,-0.0051,-0.0075,-0.0068,-0.0071,-0.0073,-0.0175,-0.0176,-0.0177,0,0,0,0,0,0,0.0113,0.0109,0.0058,0.0072,0.0064,0.0038,0.0034,0.003,0.0014,-0.0012,-0.0016,0.0006,-0.0039,-0.0046,-0.0076,-0.0078,-0.0073,-0.0076,-0.0174,-0.0176,-0.0177,-0.0146,0,0,0,0,0,0,0.0115,0.011,0.0108,0.0074,0.0064,0.0028,0.0033,0.0028,0.0008,0.0009,-0.0023,-0.0027,-0.0038,-0.0071,-0.008,-0.0083,-0.0079,-0.0174,-0.0175,-0.0176,-0.0146,-0.0146,-0.0145,0,0,0,0,0,0.0118,0.0107,0.0109,0.0103,0.0064,0.0027,0.002,0.0005,0.0006,-0.0004,-0.0021,-0.0026,-0.0086,-0.0075,-0.0085,-0.0089,-0.0173,-0.0175,-0.0176,-0.0146,-0.0146,-0.0145,0,0,0,0,0,0,0.0136,0.0105,0.0106,0.009,0.0065,0.0027,0.0012,0.0001,-0.0024,-0.002,-0.0041,-0.0046,-0.007,-0.0093,-0.008,-0.0125,-0.0129,-0.0133,-0.0103,-0.0103,-0.0103,-0.0088,-0.0081,0,0,0,0,0,0.0138,0.0121,0.0094,0.0081,0.0069,0.004,0.0022,0.0013,-0.0013,-0.0023,-0.0043,-0.0066,-0.0089,-0.0104,-0.0128,-0.0162,-0.0176,-0.0171,-0.0171,-0.0171,-0.0167,-0.0191,-0.0192,-0.0182,-0.0182,-0.0182,0,0,0.014,0.0123,0.0112,0.0083,0.0062,0.0045,0.0032,0.0006,-0.0001,-0.0026,-0.0045,-0.0068,-0.0098,-0.0123,-0.0137,-0.014,-0.0182,-0.0173,-0.0172,-0.0168,-0.0192,-0.0193,-0.0194,-0.0183,-0.0183,-0.0183,0,0,0.0133,0.0122,0.0105,0.0088,0.006,0.0042,0.0036,0.0001,-0.0005,-0.0031,-0.0044,-0.0069,-0.0111,-0.0128,-0.0143,-0.0164,-0.0178,-0.0174,-0.0164,-0.0187,-0.0188,-0.0188,-0.0205,-0.0208,-0.0176,-0.0176,-0.0176,0,0.0141,0.0123,0.0095,0.0081,0.0072,0.0044,0.0035,0.0016,-0.002,-0.0026,-0.0028,-0.0083,-0.011,-0.0136,-0.014,-0.0161,-0.0175,-0.0157,-0.0185,-0.0186,-0.0187,-0.0204,-0.0207,-0.0175,-0.0175,-0.0175,-0.0175,0,0.0119,0.0115,0.0103,0.0083,0.0067,0.0051,0.0031,0.0019,0.0008,-0.0009,-0.0033,-0.0069,-0.0096,-0.0114,-0.0134,-0.0159,-0.0166,-0.0177,-0.0178,-0.0185,-0.0204,-0.0208,-0.0173,-0.0174,-0.0174,-0.0174,0,0,0.0115,0.0094,0.0093,0.01,0.0072,0.0061,0.005,0.0031,0.0035,-0.0001,0.0,-0.0052,-0.0068,-0.0087,-0.0116,-0.0144,-0.0167,-0.0163,-0.0165,-0.0168,-0.0215,-0.021,-0.0214,-0.0181,-0.0181,-0.0182,-0.0224,0,0.0112,0.0104,0.0088,0.0091,0.0088,0.0075,0.0073,0.0056,0.0043,0.0036,-0.0003,-0.0017,-0.0058,-0.0063,-0.0099,-0.0143,-0.0176,-0.0155,-0.0219,-0.022,-0.0205,-0.0217,-0.0183,-0.0226,-0.0227,-0.0228,-0.0228,0,0.0097,0.0097,0.0102,0.0116,0.0114,0.0116,0.0122,0.0116,0.0096,0.009,0.0063,0.0033,-0.0009,-0.0037,-0.012,-0.0103,-0.0159,-0.02,-0.0202,-0.0209,-0.0222,-0.0222,-0.0235,-0.0234,-0.0234,-0.0234,-0.0233,0,0.0111,0.0111,0.0124,0.0125,0.0127,0.014,0.0145,0.0134,0.0148,0.0128,0.0142,0.0076,0.0072,-0.0015,-0.0102,-0.0111,-0.0188,-0.0209,-0.0261,-0.0261,-0.0265,-0.0264,-0.0275,-0.0275,-0.0275,-0.0275,-0.0274,0,0.0114,0.0126,0.014,0.0147,0.018,0.0172,0.0204,0.0202,0.0212,0.0242,0.0178,0.0192,0.0078,0.0019,-0.0082,-0.0174,-0.0174,-0.0259,-0.0273,-0.0252,-0.0249,-0.0267,-0.0266,-0.0276,-0.0276,-0.0276,-0.0275,0,0.0127,0.013,0.015,0.0171,0.0189,0.0214,0.0261,0.0285,0.0289,0.0332,0.0334,0.0287,0.0214,0.0089,-0.0038,-0.0124,-0.0229,-0.0267,-0.0226,-0.0237,-0.0294,-0.0291,-0.0328,-0.0328,-0.0329,-0.0329,-0.0329,0,0.0131,0.0142,0.018,0.0209,0.0225,0.0268,0.0306,0.0325,0.0363,0.0395,0.0427,0.0371,0.0322,0.0158,0.0008,-0.0185,-0.022,-0.0279,-0.0305,-0.029,-0.03,-0.0297,-0.0293,-0.0329,-0.0329,-0.0329,-0.0329,0,0.0141,0.0156,0.0178,0.0244,0.0293,0.0349,0.041,0.0447,0.0484,0.0488,0.0516,0.0425,0.0345,0.0185,0.0036,-0.0108,-0.0244,-0.0282,-0.0283,-0.0308,-0.0292,-0.0301,-0.0297,-0.033,-0.033,-0.033,-0.033,0,0.0156,0.0177,0.0218,0.0281,0.0348,0.0427,0.0446,0.0506,0.0544,0.058,0.0589,0.049,0.0431,0.0226,0.0089,-0.0052,-0.01,-0.0159,-0.0167,-0.0169,-0.0121,-0.0077,-0.0058,0,0,0,0,0,0.0171,0.0204,0.0257,0.0329,0.0401,0.0448,0.0522,0.0538,0.0579,0.0613,0.0606,0.0529,0.0344,0.026,0.0122,0.0058,-0.0144,-0.0113,-0.022,-0.0333,-0.0332,-0.0305,0,0,0,0,0,0,0.0179,0.0225,0.0259,0.037,0.043,0.0517,0.0568,0.059,0.0606,0.0623,0.0528,0.0487,0.0301,0.043,0.012,0.0076,-0.0014,-0.0201,-0.0204,-0.0333,-0.0333,-0.0332,-0.0303,0,0,0,0,0]}]]